Location: Unspecified
(0.0000°N, 0.0000°E)
Time: 03:56:00
(UTC+00:00)

QB50P2 - Pass Details

Date: 21 March 2026
Orbit: 517 x 528 km, 98.1° (Epoch: 20 April)

Event Time Altitude Azimuth Distance (km) Brightness Sun altitude
Rises 04:41:15 0° 15° (NNE) 2,622 ? -21.5°
Reaches altitude 10° 04:43:20 10° 16° (NNE) 1,739 ? -21.0°
Maximum altitude 04:47:05 75° 102° (ESE) 541 ? -20.0°
Drops below altitude 10° 04:50:51 10° 187° (S) 1,754 ? -19.1°
Sets 04:52:57 0° 189° (S) 2,647 ? -18.6°
